"2009-11-12 00:00:00",1408606,4.563,80.9,1.369,0.104,12.01,105.1438,12.44,13.55,35.92,0,110.3,13.35,13.24,42.9
"2009-11-12 00:00:30",1408607,4.396,79.08,0.995,0.099,11.48,105.1433,12.44,13.5,36.09,0,110.3,13.35,13.23,41.1
"2009-11-12 00:01:00",1408608,5.168,84.7,6.299,1.401,13.6,105.1331,12.41,13.65,36.32,0,110.3,13.31,13.21,46.7
"2009-11-12 00:01:30",1408609,4.519,77.3,3.781,0.548,12.26,105.1117,12.36,13.54,36.48,0,110.3,13.31,13.15,39.3
"2009-11-12 00:02:00",1408610,4.472,82.4,1.7,0.265,12.43,105.11,12.35,13.42,36.43,0,110.3,13.35,13.15,44.4
"2009-11-12 00:02:30",1408611,4.898,85.9,2.839,0.127,12.58,105.1091,12.35,13.4,36.4,0,110.3,13.35,13.15,47.9
"2009-11-12 00:03:00",1408612,6.218,98.6,6.469,1.515,15.21,105.0995,12.33,13.53,35.94,0,110.3,13.31,13.12,60.6
"2009-11-12 00:03:30",1408613,6.381,94.5,5.487,1.286,15.33,105.0773,12.27,13.58,36.28,0,110.3,13.31,13.07,56.5
"2009-11-12 00:04:00",1408614,6.362,97.9,6.956,1.314,15.77,105.0761,12.27,13.6,36.8,0,110.3,13.31,13.06,59.9
"2009-11-12 00:04:30",1408615,6.597,97.1,8.37,1.418,14.01,105.0761,12.27,13.45,36.56,0,110.3,13.32,13.06,59.1
"2009-11-12 00:05:00",1408616,5.24,91.3,1.867,0.133,11.46,105.0634,12.23,13.32,37.05,0,110.3,13.35,13.03,53.3
"2009-11-12 00:05:30",1408617,5.388,86.9,4.547,1.116,12.72,105.0423,12.18,13.44,37.38,0,110.3,13.33,12.98,48.9
"2009-11-12 00:06:00",1408618,5.675,92.2,3.986,1.063,12.89,105.0423,12.18,13.35,37.47,0,110.3,13.32,12.98,54.2
"2009-11-12 00:06:30",1408619,4.856,91.1,1.19,0.118,12.26,105.0406,12.18,13.26,37.4,0,110.3,13.36,12.97,53.1
"2009-11-12 00:07:00",1408620,5.682,94.2,6.839,1.254,14.04,105.0214,12.13,13.4,37.8,0,110.3,13.33,12.92,56.2
"2009-11-12 00:07:30",1408621,5.372,89.3,7.082,1.142,12.86,105.0085,12.09,13.28,37.61,0,110.3,13.33,12.89,51.3
"2009-11-12 00:08:00",1408622,6.463,100.7,6.393,1.323,16.04,105.0085,12.09,13.44,37.83,0,110.3,13.33,12.89,62.7
"2009-11-12 00:08:30",1408623,6.215,96.1,8.3,1.351,15.09,105.0042,12.08,13.43,37.98,0,110.3,13.33,12.88,58.1
"2009-11-12 00:09:00",1408624,4.585,85.3,4.762,0.492,11.52,104.9777,12.02,13.15,38.05,0,110.3,13.33,12.81,47.3
"2009-11-12 00:09:30",1408625,3.877,70.48,8.18,0.413,10.96,104.9746,12.01,13.13,38.29,0,110.3,13.36,12.80,32.5
"2009-11-12 00:10:00",1408626,5.308,90.6,6.115,1.334,13.69,104.9738,12.01,13.26,38.24,0,110.3,13.33,12.80,52.6
"2009-11-12 00:10:30",1408627,4.459,85.9,6.984,0.772,12.95,104.9543,11.96,13.24,38.09,0,110.3,13.33,12.75,47.9
"2009-11-12 00:11:00",1408628,4.095,86.9,2.602,0.191,12.31,104.9419,11.92,13.07,37.91,0,110.3,13.36,12.72,48.9
"2009-11-12 00:11:30",1408629,4.85,88.9,7.302,1.311,14.41,104.9417,11.92,13.19,38.02,0,110.3,13.33,12.72,50.9
"2009-11-12 00:12:00",1408630,4.445,90.1,3.043,0.796,12.4,104.9429,11.93,13.01,37.94,0,110.3,13.33,12.72,52.1
"2009-11-12 00:12:30",1408631,6.188,98.7,6.391,1.127,15.31,104.924,11.88,13.17,38.22,0,110.3,13.33,12.67,60.7
"2009-11-12 00:13:00",1408632,5.631,94.2,7.087,1.334,14.87,104.9167,11.86,13.22,38.48,0,110.3,13.33,12.65,56.2
"2009-11-12 00:13:30",1408633,4.073,84.7,2.636,0.232,11.44,104.9182,11.86,13.02,38.42,0,110.3,13.36,12.66,46.7
"2009-11-12 00:14:00",1408634,4.447,87.8,1.45,0.086,11.2,104.9214,11.87,12.95,38.53,0,110.3,13.36,12.66,49.8
"2009-11-12 00:14:30",1408635,4.655,89,4.134,0.916,11.73,104.9189,11.86,12.92,38.53,0,110.3,13.33,12.66,51.0
"2009-11-12 00:15:00",1408636,5.352,91.6,7.322,1.329,14.08,104.8969,11.81,13.08,38.79,0,110.3,13.33,12.60,53.6
"2009-11-12 00:15:30",1408637,5.613,93.4,7.295,1.307,14.01,104.8979,11.81,12.94,38.92,0,110.3,13.33,12.60,55.4
"2009-11-12 00:16:00",1408638,4.888,91,6.396,1.118,13.49,104.9,11.82,13.03,39.23,0,110.3,13.33,12.61,53.0
"2009-11-12 00:16:30",1408639,5.627,91.5,5.761,1.124,13.72,104.8982,11.81,12.87,39.23,0,110.3,13.33,12.61,53.5
"2009-11-12 00:17:00",1408640,5.202,86.6,7.938,1.252,12.67,104.8772,11.76,12.9,39.51,0,110.3,13.33,12.55,48.6
"2009-11-12 00:17:30",1408641,5.754,92.4,7.296,1.312,14.09,104.8724,11.75,13.01,39.74,0,110.2,13.33,12.54,54.4
"2009-11-12 00:18:00",1408642,4.51,87.5,2.45,0.155,11.53,104.8739,11.75,12.87,39.68,0,110.3,13.36,12.54,49.5
"2009-11-12 00:18:30",1408643,4.719,89.7,2.764,0.291,11.45,104.8725,11.75,12.77,39.34,0,110.2,13.36,12.54,51.7
"2009-11-12 00:19:00",1408644,4.94,91.7,3.656,0.271,11.88,104.857,11.71,12.76,38.84,0,110.2,13.36,12.50,53.7
"2009-11-12 00:19:30",1408645,6.172,95.6,4.953,1.34,14.56,104.8417,11.67,12.98,38.86,0,110.2,13.33,12.46,57.6
"2009-11-12 00:20:00",1408646,5.686,92.6,7.54,1.421,14.53,104.8409,11.67,12.89,39.28,0,110.2,13.33,12.46,54.6
"2009-11-12 00:20:30",1408647,4.843,96.6,5.208,0.728,13.14,104.8409,11.67,12.89,39.28,0,110.2,13.33,12.46,58.6
"2009-11-12 00:21:00",1408648,5.1,96.2,4.598,0.981,12.34,104.8409,11.67,12.7,38.97,0,110.3,13.33,12.46,58.2
"2009-11-12 00:21:30",1408649,5.671,99.4,5.417,1.192,14.87,104.8409,11.67,12.94,39.13,0,110.2,13.34,12.46,61.4
"2009-11-12 00:22:00",1408650,4.752,98,5.911,1.209,13.17,104.8369,11.66,12.88,39.57,0,110.2,13.34,12.45,60.0
"2009-11-12 00:22:30",1408651,4.066,88.9,4.588,1.091,12.17,104.8234,11.62,12.67,39.65,0,110.2,13.34,12.41,50.9
"2009-11-12 00:23:00",1408652,3.687,85.8,3.381,0.213,11.34,104.8101,11.59,12.66,39.75,0,110.2,13.38,12.38,47.8
"2009-11-12 00:23:30",1408653,3.826,85.4,2.767,0.311,11.73,104.807,11.58,12.65,39.7,0,110.2,13.38,12.37,47.4
"2009-11-12 00:24:00",1408654,5.058,91.9,5.392,1.205,14.56,104.807,11.58,12.84,39.64,0,110.2,13.34,12.37,53.9
"2009-11-12 00:24:30",1408655,4.629,91.4,8.64,1.513,14.55,104.807,11.58,12.85,40,0,110.2,13.34,12.37,53.4
"2009-11-12 00:25:00",1408656,3.031,78.87,4.512,0.327,11.83,104.807,11.58,12.62,39.95,0,110.2,13.38,12.37,40.9
"2009-11-12 00:25:30",1408657,4.126,89.4,10.63,1.224,12.95,104.8065,11.58,12.59,39.43,0,110.2,13.34,12.37,51.4
"2009-11-12 00:26:00",1408658,3.492,87.8,6.954,1.05,13.1,104.7977,11.55,12.78,39.53,0,110.2,13.34,12.35,49.8
"2009-11-12 00:26:30",1408659,3.429,84.8,7.117,1.263,12.54,104.7819,11.51,12.63,39.4,0,110.2,13.34,12.31,46.8
"2009-11-12 00:27:00",1408660,3.78,79.6,6.995,1.389,13.31,104.7732,11.49,12.66,39.67,0,110.2,13.34,12.28,41.6
"2009-11-12 00:27:30",1408661,3.05,79.9,2.784,0.2,11.41,104.7732,11.49,12.57,39.65,0,110.2,13.38,12.28,41.9
"2009-11-12 00:28:00",1408662,3.089,79.26,4.397,0.246,11.41,104.7732,11.49,12.54,39.59,0,110.2,13.38,12.28,41.3
"2009-11-12 00:28:30",1408663,3.605,89.8,5.106,0.967,12.41,104.7732,11.49,12.54,39.68,0,110.2,13.35,12.28,51.8
"2009-11-12 00:29:00",1408664,4.994,99.1,7.834,1.346,14.97,104.7681,11.48,12.72,39.5,0,110.2,13.34,12.27,61.1
"2009-11-12 00:29:30",1408665,4.564,95.2,8.42,1.265,14.63,104.7571,11.45,12.76,39.47,0,110.2,13.35,12.24,57.2
"2009-11-12 00:30:00",1408666,3.288,87.9,3.655,0.378,11.84,104.7402,11.41,12.5,39.06,0,110.2,13.38,12.20,49.9
"2009-11-12 00:30:30",1408667,3.855,88.7,11.63,1.126,12.57,104.7393,11.41,12.51,39.09,0,110.3,13.35,12.20,50.7
"2009-11-12 00:31:00",1408668,4.695,89.4,9.21,1.327,13.92,104.7393,11.41,12.66,39.54,0,110.2,13.35,12.20,51.4
"2009-11-12 00:31:30",1408669,3.324,81.3,4.011,0.246,11.53,104.7393,11.41,12.56,39.75,0,110.2,13.38,12.20,43.3
"2009-11-12 00:32:00",1408670,4.502,88.1,11.37,1.447,13.36,104.7393,11.41,12.54,40.03,0,110.3,13.35,12.20,50.1
"2009-11-12 00:32:30",1408671,3.764,81.7,5.87,0.337,11.63,104.739,11.4,12.55,40.45,0,110.2,13.38,12.20,43.7
"2009-11-12 00:33:00",1408672,4.875,86,7.648,1.178,13.59,104.7331,11.39,12.5,40.58,0,110.2,13.34,12.18,48.0
"2009-11-12 00:33:30",1408673,4.406,91.7,7.633,1.102,12.87,104.723,11.36,12.62,40.68,0,110.2,13.34,12.16,53.7
"2009-11-12 00:34:00",1408674,4.47,87.8,7.374,1.19,13.6,104.7086,11.33,12.54,40.37,0,110.2,13.34,12.12,49.8
"2009-11-12 00:34:30",1408675,3.166,72.35,4.872,0.283,11.96,104.7075,11.32,12.52,40.51,0,110.2,13.38,12.12,34.3
"2009-11-12 00:35:00",1408676,4.372,83.6,8.04,1.248,13.63,104.7081,11.33,12.47,40.57,0,110.2,13.34,12.12,45.6
"2009-11-12 00:35:30",1408677,3.787,77.52,8.88,1.065,12.77,104.7078,11.32,12.56,40.83,0,110.2,13.34,12.12,39.5
"2009-11-12 00:36:00",1408678,3.918,79.32,10.19,1.201,12.48,104.7108,11.33,12.38,40.65,0,110.2,13.34,12.12,41.3
"2009-11-12 00:36:30",1408679,4.046,70.07,9.33,1.046,12.34,104.7095,11.33,12.44,40.83,0,110.2,13.34,12.12,32.1
"2009-11-12 00:37:00",1408680,4.937,69.1,9.48,1.259,13.87,104.6949,11.29,12.46,41.3,0,110.2,13.34,12.08,31.1
"2009-11-12 00:37:30",1408681,4.034,67.69,4.599,0.71,11.76,104.682,11.26,12.47,41.54,0,110.2,13.35,12.05,29.7
"2009-11-12 00:38:00",1408682,5.015,72.87,9.88,1.36,14.32,104.684,11.26,12.47,41.63,0,110.2,13.35,12.06,34.9
"2009-11-12 00:38:30",1408683,3.718,63.34,4.692,1.256,11.96,104.6849,11.27,12.41,41.65,0,110.2,13.35,12.06,25.3
"2009-11-12 00:39:00",1408684,4.327,61.48,9.94,1.412,13.01,104.6885,11.28,12.37,41.73,0,110.2,13.35,12.07,23.5
"2009-11-12 00:39:30",1408685,5.13,56.58,6.499,1.228,13.08,104.6815,11.26,12.35,41.87,0,110.2,13.35,12.05,18.6
"2009-11-12 00:40:00",1408686,3.473,49.38,5.748,0.636,12.08,104.6686,11.22,12.44,42.11,0,110.2,13.39,12.02,11.4
"2009-11-12 00:40:30",1408687,4.371,66.93,9.23,1.516,13.85,104.6643,11.21,12.42,42.05,0,110.2,13.35,12.00,28.9
"2009-11-12 00:41:00",1408688,3.57,64.09,9.91,1.129,12.6,104.6667,11.22,12.33,42.02,0,110.2,13.35,12.01,26.1
"2009-11-12 00:41:30",1408689,3.792,67.28,9.07,1.236,14.03,104.6651,11.22,12.5,42.23,0,110.2,13.35,12.01,29.3
"2009-11-12 00:42:00",1408690,3.829,57.74,8.31,1.345,12.35,104.6497,11.18,12.24,42.04,0,110.2,13.35,11.97,19.7
"2009-11-12 00:42:30",1408691,2.906,50.53,2.129,0.074,11.27,104.6367,11.14,12.33,42.2,0,110.2,13.39,11.93,12.5
"2009-11-12 00:43:00",1408692,3.782,58.51,6.116,1.276,13.22,104.6379,11.15,12.33,42.17,0,110.2,13.35,11.94,20.5
"2009-11-12 00:43:30",1408693,2.718,59.82,5.365,0.222,11.17,104.6391,11.15,12.23,41.98,0,110.2,13.39,11.94,21.8
"2009-11-12 00:44:00",1408694,2.814,55.59,4.574,0.198,11.09,104.6306,11.13,12.18,41.99,0,110.2,13.39,11.92,17.6
"2009-11-12 00:44:30",1408695,3.619,52.18,6.309,1.248,13.53,104.6168,11.09,12.27,42.13,0,110.2,13.36,11.88,14.2
"2009-11-12 00:45:00",1408696,3.193,49.08,5.524,0.862,12.22,104.6055,11.06,12.3,42.59,0,110.2,13.36,11.85,11.1
"2009-11-12 00:45:30",1408697,4.123,53.48,8.6,1.312,13.2,104.6055,11.06,12.26,42.68,0,110.2,13.36,11.85,15.5
"2009-11-12 00:46:00",1408698,2.693,51.39,4.626,0.499,11.3,104.6035,11.06,12.1,42.66,0,110.2,13.36,11.85,13.4
"2009-11-12 00:46:30",1408699,4.126,53.55,6.442,1.408,13.29,104.5843,11.01,12.25,42.94,0,110.2,13.36,11.80,15.5
"2009-11-12 00:47:00",1408700,2.948,49.05,3.691,0.695,10.85,104.5716,10.98,12.06,42.88,0,110.2,13.36,11.77,11.0
"2009-11-12 00:47:30",1408701,3.803,54.22,5.925,1.381,12.71,104.5716,10.98,12.19,43.11,0,110.2,13.36,11.77,16.2
"2009-11-12 00:48:00",1408702,2.631,46.4,0.944,0.054,10.37,104.5708,10.97,12.01,43.14,0,110.2,13.39,11.76,8.4
"2009-11-12 00:48:30",1408703,2.601,45.39,1.914,0.11,10.64,104.5578,10.94,11.99,43.12,0,110.2,13.4,11.73,7.4
"2009-11-12 00:49:00",1408704,2.88,47.32,4.496,0.769,11.23,104.5383,10.89,12,43.28,0,110.2,13.36,11.68,9.3
"2009-11-12 00:49:30",1408705,4.026,54.88,6.598,1.393,14.07,104.5378,10.89,12.14,43.32,0,110.2,13.37,11.68,16.9
"2009-11-12 00:50:00",1408706,3.981,56.89,6.603,1.256,13.47,104.5372,10.89,12.05,43.31,0,110.2,13.37,11.68,18.9
"2009-11-12 00:50:30",1408707,3.003,45.52,3.922,0.661,11.9,104.5203,10.84,12.09,43.54,0,110.2,13.37,11.63,7.5
"2009-11-12 00:51:00",1408708,4.179,53.32,8.9,1.279,13.21,104.5039,10.8,12.01,43.5,0,110.2,13.36,11.59,15.3
"2009-11-12 00:51:30",1408709,3.53,46.89,6.659,1.095,11.72,104.5039,10.8,11.94,43.58,0,110.2,13.37,11.59,8.9
"2009-11-12 00:52:00",1408710,3.831,47.76,7.193,1.246,12.81,104.503,10.8,12,43.45,0,110.2,13.37,11.59,9.8
"2009-11-12 00:52:30",1408711,2.636,41.82,3.858,0.244,10.71,104.4878,10.76,11.84,43.11,0,110.2,13.4,11.55,3.8
"2009-11-12 00:53:00",1408712,2.389,43.76,2.858,0.198,10.93,104.47,10.72,11.81,43.25,0,110.2,13.4,11.51,5.8
"2009-11-12 00:53:30",1408713,2.643,45.47,3.411,0.307,11.13,104.47,10.72,11.81,43.21,0,110.2,13.4,11.51,7.5
"2009-11-12 00:54:00",1408714,3.437,56.07,11.89,1.241,14.32,104.47,10.72,12.03,43.65,0,110.2,13.37,11.51,18.1
"2009-11-12 00:54:30",1408715,3.419,58.5,10.14,1.146,13.56,104.461,10.69,11.99,43.51,0,110.2,13.37,11.48,20.5
"2009-11-12 00:55:00",1408716,3.091,63.45,7.782,1.154,12.24,104.4381,10.63,11.75,43.33,0,110.2,13.37,11.42,25.5
"2009-11-12 00:55:30",1408717,3.66,74.84,7.242,1.34,13.21,104.4362,10.63,11.9,43.61,0,110.2,13.37,11.42,36.8
"2009-11-12 00:56:00",1408718,2.7,65.48,4.454,0.088,10.96,104.4362,10.63,11.81,43.4,0,110.2,13.41,11.42,27.5
"2009-11-12 00:56:30",1408719,3.239,68.64,5.846,1.156,12.95,104.4362,10.63,11.84,43.62,0,110.2,13.37,11.42,30.6
"2009-11-12 00:57:00",1408720,2.222,63.93,4.925,0.222,10.75,104.4308,10.62,11.75,43.6,0,110.2,13.41,11.41,25.9
"2009-11-12 00:57:30",1408721,2.339,60.92,4.214,0.163,10.58,104.4206,10.59,11.65,43.58,0,110.2,13.41,11.38,22.9
"2009-11-12 00:58:00",1408722,2.155,53.21,6.51,0.172,10.85,104.4037,10.55,11.66,43.61,0,110.2,13.41,11.34,15.2
"2009-11-12 00:58:30",1408723,3.465,56.14,11.6,1.225,13.38,104.4023,10.54,11.7,43.66,0,110.2,13.37,11.33,18.1
"2009-11-12 00:59:00",1408724,2.191,45.5,11.58,1.199,12.74,104.4023,10.54,11.78,43.82,0,110.2,13.37,11.33,7.5
"2009-11-12 00:59:30",1408725,3.134,51.88,7.501,1.307,14.29,104.4017,10.54,11.77,43.87,0,110.2,13.37,11.33,13.9
"2009-11-12 01:00:00",1408726,2.528,35.79,10.82,1.29,12.37,104.3955,10.53,11.62,43.8,0,110.2,13.37,11.31,357.8
"2009-11-12 01:00:30",1408727,1.406,22.62,8.51,0.996,11.79,104.3792,10.48,11.74,43.96,0,110.1,13.37,11.27,344.6
"2009-11-12 01:01:00",1408728,2.239,27.35,10.42,1.186,11.65,104.3696,10.46,11.57,43.81,0,110.1,13.37,11.25,349.4
"2009-11-12 01:01:30",1408729,2.673,23.78,7.553,1.39,12.36,104.3687,10.46,11.71,44.16,0,110.1,13.37,11.25,345.8
"2009-11-12 01:02:00",1408730,1.595,14.48,5.487,0.707,11.09,104.372,10.47,11.69,44.29,0,110.1,13.37,11.25,336.5
"2009-11-12 01:02:30",1408731,1.782,16.2,5.505,0.214,10.31,104.3708,10.46,11.54,43.86,0,110.1,13.41,11.25,338.2
"2009-11-12 01:03:00",1408732,1.817,14.98,6.741,0.306,10.5,104.3619,10.44,11.51,43.93,0,110.1,13.41,11.23,337.0
"2009-11-12 01:03:30",1408733,1.639,21.22,7.464,0.168,10.77,104.3442,10.39,11.49,43.85,0,110.1,13.41,11.18,343.2
"2009-11-12 01:04:00",1408734,1.667,35.39,7.992,0.25,11.25,104.3443,10.39,11.51,43.55,0,110.1,13.41,11.18,357.4
"2009-11-12 01:04:30",1408735,3.377,45.56,7.61,1.264,14.59,104.3466,10.4,11.73,43.51,0,110.1,13.38,11.19,7.6
"2009-11-12 01:05:00",1408736,3.79,44.65,8.17,1.488,14.1,104.347,10.4,11.58,43.62,0,110.1,13.38,11.19,6.7
"2009-11-12 01:05:30",1408737,2.599,38.51,6.843,1.263,13.56,104.3302,10.36,11.55,43.76,0,110.1,13.37,11.15,0.5
"2009-11-12 01:06:00",1408738,1.914,45.18,6.384,0.463,11.39,104.3181,10.33,11.52,43.4,0,110.1,13.37,11.12,7.2
"2009-11-12 01:06:30",1408739,3.403,49.07,10.05,1.271,14.08,104.3193,10.33,11.62,43.12,0,110.1,13.37,11.12,11.1
"2009-11-12 01:07:00",1408740,1.532,26.87,6.111,0.689,10.59,104.3234,10.34,11.47,43.37,0,110.1,13.37,11.13,348.9
"2009-11-12 01:07:30",1408741,1.316,30.88,5.483,0.188,10.26,104.3235,10.34,11.37,43.7,0,110.1,13.41,11.13,352.9
"2009-11-12 01:08:00",1408742,1.046,42.94,8.33,0.237,10.48,104.3121,10.31,11.34,43.77,0,110.1,13.41,11.10,4.9
"2009-11-12 01:08:30",1408743,1.11,43.66,4.7,0.18,10.76,104.2939,10.27,11.34,43.39,0,110.1,13.41,11.05,5.7
"2009-11-12 01:09:00",1408744,0.997,24.81,13.86,0.323,10.97,104.2957,10.27,11.32,43.33,0,110.1,13.41,11.06,346.8
"2009-11-12 01:09:30",1408745,1.316,27.82,2.188,0.113,11.37,104.2975,10.27,11.32,43.5,0,110.1,13.41,11.06,349.8
"2009-11-12 01:10:00",1408746,2.055,33,8.43,1.182,13.74,104.2986,10.28,11.45,43.7,0,110.1,13.38,11.07,355.0
"2009-11-12 01:10:30",1408747,1.82,26.81,8.52,1.042,12.27,104.2948,10.27,11.35,43.53,0,110.1,13.38,11.06,348.8
"2009-11-12 01:11:00",1408748,1.98,21.91,5.482,1.165,13.46,104.2824,10.24,11.43,43.62,0,110.1,13.38,11.02,343.9
"2009-11-12 01:11:30",1408749,2.966,25.97,6.188,1.256,13.92,104.2677,10.2,11.36,43.5,0,110.1,13.38,10.99,348.0
"2009-11-12 01:12:00",1408750,2.074,36.48,9.71,1.311,12.54,104.2677,10.2,11.41,43.58,0,110.1,13.38,10.99,358.5
"2009-11-12 01:12:30",1408751,2.338,39.13,7.939,1.199,12.51,104.2683,10.2,11.27,43.26,0,110.1,13.38,10.99,1.1
"2009-11-12 01:13:00",1408752,1.069,32.75,6.496,0.136,10.57,104.2677,10.2,11.31,43.08,0,110.1,13.42,10.99,354.8
"2009-11-12 01:13:30",1408753,1.135,19.38,11.62,0.279,10.24,104.2525,10.16,11.23,42.86,0,110.1,13.42,10.95,341.4
"2009-11-12 01:14:00",1408754,0.951,11.04,10.29,0.353,10.31,104.2386,10.12,11.2,43.27,0,110.1,13.42,10.91,333.0
"2009-11-12 01:14:30",1408755,0.909,8.12,10.19,0.384,10.59,104.2344,10.11,11.18,43.63,0,110.1,13.42,10.90,330.1
"2009-11-12 01:15:00",1408756,1.777,353.1,3.723,0.29,10.86,104.2344,10.11,11.17,44.25,0,110.1,13.42,10.90,315.1
"2009-11-12 01:15:30",1408757,2.395,349.5,4.412,0.468,11.29,104.2344,10.11,11.21,44.66,0,110.1,13.38,10.90,311.5
"2009-11-12 01:16:00",1408758,3.777,346.8,6.89,1.213,13.49,104.2344,10.11,11.24,44.78,0,110.1,13.39,10.90,308.8
"2009-11-12 01:16:30",1408759,2.936,337.6,0.845,0.047,11.37,104.2344,10.11,11.14,44.91,0,110.2,13.42,10.90,299.6
"2009-11-12 01:17:00",1408760,4.438,347.3,7.186,1.326,14.18,104.2296,10.1,11.36,45.24,0,110.1,13.39,10.89,309.3
"2009-11-12 01:17:30",1408761,5.047,349.6,4.614,1.026,15.31,104.2178,10.07,11.46,45.3,0,110.1,13.39,10.86,311.6
"2009-11-12 01:18:00",1408762,4.209,345,6.949,1.312,13.11,104.2059,10.04,11.24,45.18,0,110.1,13.39,10.83,307.0
"2009-11-12 01:18:30",1408763,2.716,340.6,1.558,0.065,10.32,104.2014,10.03,11.09,45,0,110.1,13.42,10.82,302.6
"2009-11-12 01:19:00",1408764,2.574,341.2,1.039,0.08,10.42,104.2005,10.03,11.09,44.98,0,110.1,13.42,10.81,303.2
"2009-11-12 01:19:30",1408765,2.507,345.8,1.205,0.049,10.81,104.2005,10.03,11.08,44.91,0,110.1,13.42,10.81,307.8
"2009-11-12 01:20:00",1408766,3.396,350.9,6.908,1.261,12.89,104.2005,10.03,11.25,44.95,0,110.1,13.39,10.81,312.9
"2009-11-12 01:20:30",1408767,2.534,346,4.669,0.735,11.83,104.2005,10.03,11.21,44.86,0,110.1,13.39,10.81,308.0
"2009-11-12 01:21:00",1408768,2.254,343.3,1.561,0.109,11.12,104.2005,10.03,11.06,44.77,0,110.1,13.42,10.81,305.3
"2009-11-12 01:21:30",1408769,2.263,342.9,1.99,0.055,11.19,104.2005,10.03,11.06,44.75,0,110.1,13.42,10.81,304.9
"2009-11-12 01:22:00",1408770,3.671,350.4,6.315,1.339,14.17,104.2005,10.03,11.22,44.83,0,110.1,13.39,10.81,312.4
"2009-11-12 01:22:30",1408771,4.748,354.2,3.966,0.832,16.23,104.2005,10.03,11.39,44.87,0,110.1,13.39,10.81,316.2
"2009-11-12 01:23:00",1408772,3.951,350.1,6.666,1.285,14.28,104.2005,10.03,11.21,44.54,0,110.1,13.39,10.81,312.1
"2009-11-12 01:23:30",1408773,2.309,340.4,1.093,0.093,10.61,104.2005,10.03,11.04,44.13,0,110.1,13.42,10.81,302.4
"2009-11-12 01:24:00",1408774,2.345,341.2,1.589,0.097,10.58,104.2005,10.03,11.06,43.89,0,110.1,13.42,10.81,303.2
"2009-11-12 01:24:30",1408775,2.29,339.8,3.919,0.75,11.24,104.2005,10.03,11.06,43.47,0,110.1,13.38,10.81,301.8
"2009-11-12 01:25:00",1408776,3.04,341.9,7.216,1.303,13.01,104.2005,10.03,11.19,43.27,0,110.1,13.39,10.81,303.9
"2009-11-12 01:25:30",1408777,2.176,333,2.461,0.112,11.23,104.2005,10.03,11.05,42.94,0,110.1,13.41,10.81,295.0
"2009-11-12 01:26:00",1408778,2.398,332.6,2.028,0.138,11.31,104.2005,10.03,11.05,42.87,0,110.1,13.42,10.81,294.6
"2009-11-12 01:26:30",1408779,2.564,330.1,1.559,0.104,11.46,104.2005,10.03,11.05,42.91,0,110.1,13.42,10.81,292.1
"2009-11-12 01:27:00",1408780,2.484,325.1,3.816,0.211,11.81,104.2005,10.03,11.07,42.87,0,110.1,13.42,10.81,287.1
"2009-11-12 01:27:30",1408781,4.161,331.5,6.87,1.225,15.67,104.2005,10.03,11.4,42.86,0,110.1,13.39,10.81,293.5
"2009-11-12 01:28:00",1408782,4.066,325.7,7.156,1.19,15.34,104.2005,10.03,11.32,42.67,0,110.1,13.39,10.81,287.7
"2009-11-12 01:28:30",1408783,2.84,313.9,5.94,0.822,12.68,104.2005,10.03,11.28,42.21,0,110.1,13.39,10.81,275.9
"2009-11-12 01:29:00",1408784,1.952,298.7,9.59,0.233,11.41,104.2011,10.03,11.07,41.5,0,110.1,13.42,10.82,260.7
"2009-11-12 01:29:30",1408785,2.397,284.4,1.691,0.517,11.95,104.2155,10.07,11.08,39.92,0,110.1,13.43,10.85,246.4
"2009-11-12 01:30:00",1408786,3.422,292.8,8.67,1.248,14.2,104.2324,10.11,11.21,38.28,0,110.1,13.39,10.90,254.8
"2009-11-12 01:30:30",1408787,2.271,291.6,6.485,0.812,12.93,104.2344,10.11,11.22,38.54,0,110.1,13.4,10.90,253.6
"2009-11-12 01:31:00",1408788,2.293,293.4,5.152,0.082,12.18,104.2344,10.11,11.11,38.32,0,110.1,13.43,10.90,255.4
"2009-11-12 01:31:30",1408789,2.053,293.7,2.376,0.125,12.04,104.2353,10.12,11.12,38.45,0,110.1,13.43,10.90,255.7
"2009-11-12 01:32:00",1408790,2.129,296.6,3.594,0.274,12.37,104.248,10.15,11.12,38.53,0,110.1,13.43,10.94,258.6
"2009-11-12 01:32:30",1408791,2.357,299.2,3.028,0.058,12.72,104.2677,10.2,11.15,38.24,0,110.1,13.43,10.99,261.2
"2009-11-12 01:33:00",1408792,2.585,302.9,4.065,0.819,13.1,104.2683,10.2,11.17,38.14,0,110.1,13.4,10.99,264.9
"2009-11-12 01:33:30",1408793,2.852,307.6,6.858,1.108,14.51,104.2742,10.22,11.39,38.13,0,110.1,13.4,11.00,269.6
"2009-11-12 01:34:00",1408794,4.401,316.6,5.639,0.777,17.05,104.2943,10.27,11.47,38.35,0,110.1,13.4,11.05,278.6
"2009-11-12 01:34:30",1408795,2.616,310.1,6.441,1.236,13.85,104.3022,10.29,11.43,38.52,0,110.1,13.4,11.07,272.1
"2009-11-12 01:35:00",1408796,2.043,306.5,3.93,0.14,11.59,104.3022,10.29,11.25,38.65,0,110.1,13.43,11.07,268.5
"2009-11-12 01:35:30",1408797,1.882,307.2,3.308,0.164,11.35,104.3132,10.32,11.27,38.64,0,110.1,13.43,11.10,269.2
"2009-11-12 01:36:00",1408798,2.616,316.2,7.469,1.426,13.22,104.3341,10.37,11.43,39,0,110.1,13.4,11.16,278.2
"2009-11-12 01:36:30",1408799,1.997,308.1,2.579,0.144,11.63,104.336,10.37,11.32,38.94,0,110.1,13.43,11.16,270.1
"2009-11-12 01:37:00",1408800,2.179,311.3,3.574,0.082,11.52,104.336,10.37,11.34,38.72,0,110.1,13.43,11.16,273.3
"2009-11-12 01:37:30",1408801,2.315,317,3.193,0.219,11.36,104.3504,10.41,11.36,38.79,0,110.1,13.44,11.20,279.0
"2009-11-12 01:38:00",1408802,2.699,319.7,5.191,0.232,11.75,104.3688,10.46,11.38,39.32,0,110.1,13.43,11.25,281.7
"2009-11-12 01:38:30",1408803,2.652,317.8,3.667,0.263,12.08,104.3699,10.46,11.44,39.67,0,110.1,13.43,11.25,279.8
"2009-11-12 01:39:00",1408804,3.949,319.8,9.05,1.414,14.56,104.3699,10.46,11.54,39.77,0,110.1,13.4,11.25,281.8
"2009-11-12 01:39:30",1408805,5.022,325.6,7.165,1.241,15.52,104.3883,10.51,11.67,39.88,0,110.1,13.39,11.30,287.6
"2009-11-12 01:40:00",1408806,4.068,318.2,6.767,1.382,14.58,104.4024,10.54,11.67,39.8,0,110.1,13.39,11.33,280.2
"2009-11-12 01:40:30",1408807,2.944,313.3,4.316,0.806,12.17,104.4038,10.55,11.6,39.59,0,110.1,13.39,11.34,275.3
"2009-11-12 01:41:00",1408808,3.084,319,5.088,1.027,12.28,104.4038,10.55,11.62,39.58,0,110.1,13.39,11.34,281.0
"2009-11-12 01:41:30",1408809,3.814,324.3,6.5,1.357,12.89,104.4069,10.55,11.58,39.62,0,110.1,13.39,11.34,286.3
"2009-11-12 01:42:00",1408810,2.644,315.8,1.297,0.085,11.16,104.4289,10.61,11.55,39.63,0,110.1,13.42,11.40,277.8
"2009-11-12 01:42:30",1408811,2.743,315.2,1.329,0.118,11.31,104.4368,10.63,11.56,39.6,0,110.1,13.42,11.42,277.2
"2009-11-12 01:43:00",1408812,2.691,312.7,2.734,0.108,11.88,104.4377,10.63,11.59,39.07,0,110.1,13.42,11.42,274.7
"2009-11-12 01:43:30",1408813,3.084,311,2.008,0.293,12.31,104.438,10.63,11.6,38.92,0,110.1,13.43,11.42,273.0
"2009-11-12 01:44:00",1408814,3.803,316,5.224,1.053,13.09,104.4411,10.64,11.62,38.89,0,110.1,13.4,11.43,278.0
"2009-11-12 01:44:30",1408815,4.446,318.5,6.504,1.36,14.38,104.4585,10.69,11.88,39.46,0,110.1,13.4,11.48,280.5
"2009-11-12 01:45:00",1408816,5.255,323.2,6.182,1.333,15.74,104.4701,10.72,11.95,39.47,0,110.1,13.4,11.51,285.2
"2009-11-12 01:45:30",1408817,4.838,320,6.617,1.328,13.79,104.4718,10.72,11.76,39.39,0,110.1,13.4,11.51,282.0
"2009-11-12 01:46:00",1408818,4.703,320.8,5.886,1.274,13.58,104.4721,10.72,11.77,39.45,0,110.1,13.4,11.51,282.8
"2009-11-12 01:46:30",1408819,4.24,321,5.577,1.039,12.41,104.4721,10.72,11.84,39.54,0,110.1,13.4,11.51,283.0
"2009-11-12 01:47:00",1408820,3.707,318.7,1.063,0.112,10.97,104.4715,10.72,11.71,39.41,0,110.1,13.43,11.51,280.7
"2009-11-12 01:47:30",1408821,3.904,321.7,2.095,0.053,11.25,104.473,10.72,11.72,39.47,0,110.1,13.43,11.51,283.7